KC3ROS Weather Reports


time (UTC)temp
C
wind
direction
speed
KPH
gust
KPH
rain 1hr
cm
rain 24hr
cm
rain mn
cm
humidity
%
barometer
mb
20260510022433 11 92 3.2 3.2 0.48 0.71 0.71 98 1009.6
20260510021932 11 25 0.0 1.6 0.61 0.69 0.69 98 1009.6
20260510021430 11 75 0.0 3.2 0.48 0.61 0.61 98 1009.5
20260510020926 11 43 1.6 3.2 0.71 0.58 0.58 97 1009.7
20260510020421 11 32 0.0 4.8 0.89 0.51 0.51 97 1009.5
20260510015917 11 30 3.2 6.4 0.61 0.43 0.43 96 1009.5
20260510015413 11 8 6.4 8.0 0.48 0.38 0.38 95 1009.2
20260510014908 12 31 3.2 11.3 0.61 0.33 0.33 94 1009.4
20260510014406 12 2 6.4 14.5 0.30 0.28 0.28 89 1009.2
20260510013903 13 33 4.8 11.3 0.00 0.23 0.23 83 1008.7
20260510013357 14 337 9.7 17.7 0.00 0.23 0.23 80 1008.5
20260510012852 16 334 14.5 14.5 0.00 0.23 0.23 75 1008.0
20260510012348 16 320 1.6 6.4 0.00 0.23 0.23 70 1006.6
20260510011843 16 221 1.6 4.8 0.00 0.23 0.23 70 1006.5
20260510011338 16 4 0.0 6.4 0.00 0.23 0.23 69 1006.6
20260510010835 16 224 0.0 14.5 0.00 0.23 0.23 69 1006.3
20260510010332 16 157 0.0 12.9 0.00 0.23 0.23 69 1006.3
20260510005828 16 156 3.2 8.0 0.00 0.23 0.23 69 1006.3
20260510005325 16 211 3.2 11.3 0.00 0.23 0.23 69 1006.3
20260510004823 16 224 3.2 6.4 0.00 0.23 0.23 69 1006.4
20260510004320 16 227 3.2 8.0 0.00 0.23 0.23 68 1006.2
20260510003818 16 118 0.0 4.8 0.00 0.23 0.23 69 1006.2
20260510003315 16 138 3.2 6.4 0.00 0.23 0.23 67 1006.4
20260510002813 16 244 0.0 9.7 0.00 0.23 0.23 67 1006.3
20260510002311 16 253 1.6 9.7 0.00 0.23 0.23 67 1006.3
20260510001807 16 237 3.2 4.8 0.00 0.23 0.23 67 1006.2
20260510001305 17 178 3.2 8.0 0.00 0.23 0.23 66 1006.1
20260510000801 17 238 0.0 11.3 0.00 0.23 0.23 65 1005.9
20260510000259 17 89 0.0 8.0 0.00 0.23 0.23 65 1005.9
20260509235756 17 103 1.6 8.0 0.00 0.23 0.23 63 1005.8
20260509235252 17 184 3.2 12.9 0.00 0.23 0.23 63 1006.0
20260509234747 17 221 8.0 11.3 0.00 0.23 0.23 62 1005.9
20260509234245 17 148 4.8 9.7 0.00 0.23 0.23 64 1006.0
20260509233743 17 163 3.2 8.0 0.00 0.23 0.23 64 1005.7
20260509233240 17 132 0.0 6.4 0.00 0.23 0.23 63 1005.9
20260509232736 18 116 1.6 12.9 0.00 0.23 0.23 63 1005.6
20260509232233 18 222 4.8 9.7 0.00 0.23 0.23 64 1005.7
20260509231730 18 230 14.5 19.3 0.00 0.23 0.23 61 1005.7
20260509231227 18 104 3.2 12.9 0.00 0.23 0.23 61 1005.6
20260509230725 18 186 4.8 14.5 0.00 0.23 0.23 60 1005.6
20260509230221 19 186 3.2 12.9 0.00 0.23 0.23 59 1005.7
20260509225716 19 202 4.8 8.0 0.00 0.23 0.23 58 1005.7
20260509225212 20 263 6.4 14.5 0.00 0.23 0.23 57 1005.6
20260509224708 19 56 1.6 25.7 0.00 0.23 0.23 57 1005.8
20260509224205 20 231 1.6 12.9 0.00 0.23 0.23 60 1005.7
20260509223702 20 124 4.8 16.1 0.00 0.23 0.23 58 1005.4
20260509223154 20 200 16.1 29.0 0.00 0.23 0.23 57 1005.3
20260509222651 20 255 9.7 14.5 0.00 0.23 0.23 57 1005.2
20260509222146 20 213 6.4 14.5 0.00 0.23 0.23 58 1005.2
20260509221642 20 118 4.8 14.5 0.00 0.23 0.23 57 1005.3
20260509221138 20 180 3.2 16.1 0.00 0.23 0.23 56 1005.4
20260509220634 20 263 4.8 14.5 0.00 0.23 0.23 58 1005.3
20260509220130 20 200 4.8 20.9 0.00 0.23 0.23 57 1005.4
20260509215627 20 108 4.8 14.5 0.00 0.23 0.23 59 1005.7
20260509215123 20 217 8.0 11.3 0.00 0.23 0.23 60 1005.8
20260509214621 20 213 9.7 14.5 0.00 0.23 0.23 56 1005.8
20260509214117 20 129 4.8 17.7 0.00 0.23 0.23 60 1005.6
20260509213613 20 113 3.2 16.1 0.00 0.23 0.23 58 1005.6
20260509213110 20 155 0.0 17.7 0.00 0.23 0.23 58 1005.7
20260509212607 20 243 4.8 12.9 0.00 0.23 0.23 56 1005.7
20260509212104 20 227 4.8 9.7 0.00 0.23 0.23 59 1005.9
20260509211559 19 225 16.1 17.7 0.00 0.23 0.23 61 1005.7
20260509211056 20 266 8.0 19.3 0.00 0.23 0.23 58 1005.7
20260509210553 19 239 3.2 12.9 0.00 0.23 0.23 62 1005.9
20260509210050 19 172 6.4 17.7 0.00 0.23 0.23 62 1006.2
20260509205544 20 347 3.2 11.3 0.00 0.23 0.23 62 1006.0
20260509205040 19 302 0.0 6.4 0.00 0.23 0.23 67 1006.1
20260509204536 18 198 1.6 16.1 0.00 0.23 0.23 65 1006.4
20260509204032 17 222 11.3 14.5 0.00 0.23 0.23 65 1006.2
20260509203528 19 211 9.7 12.9 0.00 0.23 0.23 64 1006.2
20260509203027 19 323 6.4 17.7 0.00 0.23 0.23 61 1006.4
20260509202526 18 280 9.7 12.9 0.00 0.23 0.23 63 1006.2
20260509202022 18 229 12.9 16.1 0.00 0.23 0.23 67 1006.5
20260509201517 18 211 4.8 11.3 0.00 0.23 0.23 66 1006.5
20260509201015 18 166 3.2 14.5 0.00 0.23 0.23 65 1006.4
20260509200510 17 280 4.8 9.7 0.00 0.23 0.23 68 1006.5
20260509200007 18 197 4.8 12.9 0.00 0.23 0.23 68 1006.6
20260509195502 17 113 1.6 9.7 0.00 0.23 0.23 69 1006.6
20260509195001 18 230 6.4 11.3 0.00 0.23 0.23 69 1006.7
20260509194457 17 259 1.6 16.1 0.00 0.23 0.23 70 1006.8
20260509193954 16 150 4.8 14.5 0.00 0.23 0.23 70 1006.7
20260509193449 17 234 4.8 12.9 0.00 0.23 0.23 69 1007.0
20260509192945 18 205 3.2 9.7 0.00 0.23 0.23 69 1006.8
20260509192442 18 221 8.0 16.1 0.00 0.23 0.23 68 1006.9
20260509191937 18 180 9.7 20.9 0.00 0.23 0.23 68 1007.0
20260509191432 17 76 0.0 14.5 0.00 0.23 0.23 73 1007.0
20260509190929 16 89 3.2 20.9 0.00 0.23 0.23 73 1007.1
20260509190426 16 185 3.2 11.3 0.00 0.23 0.23 74 1007.0
20260509185924 16 193 1.6 8.0 0.00 0.23 0.23 75 1007.1
20260509185421 17 217 3.2 11.3 0.00 0.23 0.23 71 1007.3
20260509184917 17 224 4.8 27.4 0.00 0.23 0.23 75 1007.4
20260509184415 16 178 4.8 9.7 0.00 0.23 0.23 75 1007.2
20260509183911 17 194 1.6 9.7 0.00 0.23 0.23 74 1007.4
20260509183406 16 33 4.8 17.7 0.00 0.23 0.23 76 1007.5
20260509182902 16 213 4.8 9.7 0.00 0.23 0.23 76 1007.5
20260509182359 16 142 4.8 17.7 0.00 0.23 0.23 77 1007.4
20260509181857 15 233 4.8 11.3 0.00 0.23 0.23 80 1007.5
20260509181354 15 121 8.0 12.9 0.00 0.23 0.23 80 1007.7
20260509180851 16 187 8.0 16.1 0.00 0.23 0.23 76 1007.4
20260509180346 16 220 6.4 11.3 0.00 0.23 0.23 78 1007.5
20260509175844 16 289 6.4 14.5 0.00 0.23 0.23 77 1007.3
20260509175340 16 149 0.0 8.0 0.00 0.23 0.23 79 1007.5
20260509174836 15 123 3.2 6.4 0.00 0.23 0.23 80 1007.4
20260509174332 15 211 3.2 17.7 0.00 0.23 0.23 80 1007.7
20260509173828 15 253 14.5 14.5 0.00 0.23 0.23 80 1007.4
20260509173323 15 97 4.8 4.8 0.00 0.23 0.23 84 1007.4
20260509172820 14 273 6.4 14.5 0.00 0.23 0.23 82 1007.6
20260509172317 14 147 4.8 17.7 0.00 0.23 0.23 84 1007.6
20260509171813 14 218 3.2 12.9 0.00 0.23 0.23 86 1007.6
20260509171308 14 197 3.2 11.3 0.00 0.23 0.23 84 1007.6
20260509170805 15 154 0.0 11.3 0.00 0.23 0.23 84 1007.6
20260509170301 15 303 6.4 9.7 0.00 0.23 0.23 82 1007.4
20260509165800 15 186 4.8 11.3 0.00 0.23 0.23 84 1007.5
20260509165255 15 275 4.8 9.7 0.00 0.23 0.23 83 1007.2
20260509164752 15 96 6.4 11.3 0.00 0.23 0.23 85 1007.3
20260509164248 13 101 6.4 8.0 0.00 0.23 0.23 88 1007.4
20260509163745 13 62 0.0 8.0 0.00 0.23 0.23 87 1007.3
20260509163241 13 146 0.0 4.8 0.00 0.23 0.23 88 1007.4
20260509162739 14 127 3.2 11.3 0.00 0.23 0.23 88 1007.4
20260509162228 14 216 4.8 11.3 0.00 0.23 0.23 88 1007.4
20260509161724 13 188 3.2 11.3 0.00 0.23 0.23 91 1007.3
20260509161220 13 185 4.8 11.3 0.00 0.23 0.23 94 1007.4
20260509160715 13 102 1.6 8.0 0.00 0.23 0.23 98 1007.3
20260509160212 12 222 4.8 8.0 0.00 0.23 0.23 99 1007.2
20260509155707 12 215 0.0 8.0 0.00 0.23 0.23 99 1007.2
20260509155204 11 212 0.0 3.2 0.00 0.23 0.23 99 1007.5
20260509154700 12 224 0.0 4.8 0.00 0.23 0.23 99 1007.3
20260509154157 11 332 4.8 6.4 0.00 0.23 0.23 99 1007.4
20260509153654 11 202 4.8 12.9 0.00 0.23 0.23 99 1007.3
20260509153151 11 209 3.2 4.8 0.00 0.23 0.23 99 1007.4
20260509152646 11 216 1.6 4.8 0.00 0.23 0.23 99 1007.2
20260509152144 11 233 6.4 8.0 0.00 0.23 0.23 99 1007.3
20260509151640 11 50 0.0 4.8 0.00 0.23 0.23 99 1007.3
20260509151137 11 22 0.0 4.8 0.00 0.23 0.23 99 1007.5
20260509150636 11 203 0.0 8.0 0.00 0.23 0.23 99 1007.5
20260509150134 10 211 3.2 8.0 0.00 0.23 0.23 99 1007.6
20260509145630 10 196 6.4 16.1 0.05 0.23 0.23 99 1007.5
20260509145125 10 214 4.8 6.4 0.05 0.23 0.23 99 1007.5
20260509144622 10 298 4.8 8.0 0.05 0.23 0.23 99 1007.4
20260509144119 10 218 3.2 4.8 0.05 0.20 0.20 99 1007.4
20260509143616 10 193 1.6 4.8 0.05 0.20 0.20 99 1007.4
20260509143114 10 269 3.2 6.4 0.05 0.20 0.20 99 1007.5
20260509142608 10 210 3.2 8.0 0.13 0.20 0.20 99 1007.3
20260509142105 10 192 1.6 4.8 0.05 0.18 0.18 99 1007.3
20260509141601 10 59 0.0 4.8 0.00 0.18 0.18 99 1007.2
20260509141058 10 149 0.0 3.2 0.00 0.18 0.18 99 1007.4
20260509140555 10 85 0.0 6.4 0.00 0.18 0.18 99 1007.4
20260509140053 10 194 3.2 4.8 0.00 0.18 0.18 99 1007.4
20260509135550 10 206 0.0 6.4 0.00 0.18 0.18 99 1007.4
20260509135047 10 202 0.0 4.8 0.00 0.18 0.18 99 1007.5
20260509134544 10 150 3.2 4.8 0.00 0.18 0.18 99 1007.6
20260509134041 10 225 6.4 9.7 0.00 0.18 0.18 99 1007.5
20260509133538 10 231 1.6 4.8 0.00 0.18 0.18 99 1007.8
20260509133036 10 132 3.2 6.4 0.00 0.18 0.18 99 1007.6
20260509132534 10 172 1.6 8.0 0.05 0.18 0.18 99 1007.6
20260509132032 10 213 3.2 4.8 0.05 0.18 0.18 99 1007.6
20260509131528 10 193 1.6 9.7 0.00 0.18 0.18 99 1007.6
20260509131025 10 164 0.0 8.0 0.00 0.18 0.18 99 1007.6
20260509130520 10 183 3.2 4.8 0.00 0.18 0.18 99 1007.8
20260509130018 10 169 0.0 6.4 0.00 0.18 0.18 99 1007.8
20260509125514 10 213 1.6 4.8 0.05 0.18 0.18 99 1007.6
20260509125010 10 200 1.6 9.7 0.13 0.18 0.18 99 1007.7
20260509124507 10 199 4.8 9.7 0.05 0.15 0.15 99 1007.6
20260509124004 10 216 3.2 9.7 0.05 0.15 0.15 99 1007.8
20260509123503 10 184 3.2 8.0 0.05 0.15 0.15 99 1007.6
20260509122958 10 225 4.8 6.4 0.05 0.15 0.15 99 1007.9
20260509122455 10 99 1.6 9.7 0.05 0.13 0.13 99 1007.9
20260509121952 10 206 3.2 8.0 0.05 0.13 0.13 99 1007.9
20260509121448 10 175 0.0 6.4 0.00 0.13 0.13 99 1007.8
20260509120946 10 211 4.8 8.0 0.00 0.13 0.13 99 1007.8
20260509120444 10 183 0.0 6.4 0.00 0.13 0.13 99 1007.8
20260509115942 10 219 3.2 3.2 0.00 0.13 0.13 99 1007.7
20260509115439 10 284 3.2 9.7 0.00 0.13 0.13 99 1007.7
20260509114936 10 307 3.2 8.0 0.05 0.13 0.13 99 1007.8
20260509114435 10 140 1.6 11.3 0.13 0.13 0.13 99 1007.6
20260509113934 10 131 1.6 4.8 0.23 0.10 0.10 99 1007.7
20260509113431 10 135 0.0 8.0 0.18 0.10 0.10 99 1007.6
20260509112927 10 195 3.2 8.0 0.13 0.08 0.08 99 1007.9
20260509112425 9 142 0.0 9.7 0.13 0.05 0.05 99 1007.8
20260509111921 9 208 0.0 6.4 0.05 0.05 0.05 99 1007.7
20260509111419 9 192 1.6 4.8 0.00 0.05 0.05 99 1007.5
20260509110916 9 188 3.2 6.4 0.05 0.05 0.05 99 1007.5
20260509110412 9 178 0.0 6.4 0.00 0.03 0.03 99 1007.6
20260509105910 9 210 3.2 12.9 0.00 0.03 0.03 99 1007.5
20260509105409 9 211 0.0 9.7 0.00 0.03 0.03 99 1007.5
20260509104905 9 206 4.8 8.0 0.00 0.03 0.03 99 1007.3
20260509104402 9 125 0.0 6.4 0.00 0.03 0.03 99 1007.4
20260509103859 9 134 1.6 4.8 0.00 0.03 0.03 99 1007.4
20260509103356 9 119 0.0 4.8 0.00 0.03 0.03 99 1007.4
20260509102855 9 69 0.0 3.2 0.00 0.03 0.03 99 1007.4
20260509102352 8 144 0.0 6.4 0.00 0.03 0.03 99 1007.3
20260509101848 8 212 3.2 4.8 0.00 0.03 0.03 99 1007.3
20260509101344 9 180 0.0 6.4 0.00 0.03 0.03 99 1007.4
20260509100842 8 191 1.6 4.8 0.00 0.03 0.03 99 1007.2
20260509100339 8 214 0.0 4.8 0.00 0.03 0.03 99 1007.4
20260509095836 8 131 0.0 1.6 0.00 0.03 0.03 99 1007.3
20260509095333 8 104 0.0 4.8 0.00 0.03 0.03 99 1007.4
20260509094830 8 18 0.0 3.2 0.00 0.03 0.03 99 1007.4
20260509094326 8 196 0.0 4.8 0.00 0.03 0.03 99 1007.5
20260509093824 8 240 0.0 3.2 0.00 0.03 0.03 99 1007.6
20260509093321 8 231 1.6 3.2 0.00 0.03 0.03 99 1007.6
20260509092820 8 24 0.0 4.8 0.00 0.03 0.03 99 1007.8
20260509092317 8 15 0.0 1.6 0.00 0.03 0.03 99 1007.9
20260509091815 8 235 0.0 3.2 0.00 0.03 0.03 99 1007.7
20260509091312 8 93 1.6 3.2 0.00 0.03 0.03 99 1007.8
20260509090809 8 96 1.6 4.8 0.00 0.03 0.03 99 1007.7
20260509090306 8 92 1.6 3.2 0.00 0.03 0.03 99 1007.8
20260509085803 8 45 0.0 3.2 0.00 0.03 0.03 99 1007.8
20260509085301 8 65 1.6 3.2 0.00 0.03 0.03 99 1008.0
20260509084757 8 108 0.0 3.2 0.00 0.03 0.03 99 1008.0
20260509084254 8 44 0.0 1.6 0.00 0.03 0.03 99 1008.1
20260509083752 8 37 0.0 1.6 0.00 0.03 0.03 99 1008.1
20260509083248 8 135 0.0 1.6 0.00 0.03 0.03 99 1008.0
20260509082745 8 131 0.0 3.2 0.05 0.03 0.03 99 1008.1
20260509082241 8 329 0.0 1.6 0.05 0.03 0.03 99 1008.5
20260509081739 8 6 0.0 0.0 0.00 0.03 0.03 99 1008.0
20260509081236 8 105 3.2 3.2 0.00 0.03 0.03 99 1008.0
20260509080734 8 110 3.2 3.2 0.00 0.03 0.03 99 1007.9
20260509080231 8 72 0.0 3.2 0.00 0.03 0.03 99 1008.1
20260509075729 8 75 0.0 1.6 0.00 0.03 0.03 99 1008.4
20260509075227 8 235 1.6 3.2 0.00 0.03 0.03 99 1008.4
20260509074723 8 269 0.0 3.2 0.00 0.03 0.03 99 1008.2
20260509074221 8 129 0.0 1.6 0.00 0.03 0.03 99 1008.4
20260509073717 8 104 0.0 0.0 0.00 0.03 0.03 99 1008.2
20260509073214 8 104 0.0 3.2 0.05 0.03 0.03 99 1008.1
20260509072710 8 66 0.0 1.6 0.05 0.03 0.03 99 1008.1
20260509072207 8 15 0.0 1.6 0.00 0.00 0.00 99 1008.2
20260509071703 8 224 0.0 3.2 0.00 0.00 0.00 99 1008.0
20260509071201 8 269 0.0 1.6 0.00 0.00 0.00 99 1008.2
20260509070658 8 54 3.2 4.8 0.00 0.00 0.00 99 1008.0
20260509070154 8 109 3.2 8.0 0.00 0.00 0.00 99 1007.9
20260509065650 8 129 1.6 4.8 0.00 0.00 0.00 99 1008.1
20260509065147 8 108 4.8 6.4 0.00 0.00 0.00 99 1008.5
20260509064644 8 116 3.2 4.8 0.00 0.00 0.00 99 1008.0
20260509064142 8 107 3.2 4.8 0.00 0.00 0.00 99 1008.2
20260509063638 8 103 3.2 6.4 0.00 0.00 0.00 99 1008.2
20260509063135 8 95 1.6 3.2 0.00 0.00 0.00 99 1008.2
20260509062632 8 83 1.6 3.2 0.00 0.00 0.00 99 1008.5
20260509062129 8 32 0.0 3.2 0.00 0.00 0.00 99 1008.5
20260509061626 8 129 0.0 4.8 0.00 0.00 0.00 99 1008.5
20260509061123 8 68 3.2 4.8 0.00 0.00 0.00 99 1008.2
20260509060621 8 82 3.2 4.8 0.00 0.00 0.00 99 1008.6
20260509060116 8 69 1.6 4.8 0.00 0.00 0.00 99 1008.9
20260509055612 8 69 3.2 4.8 0.00 0.00 0.00 99 1008.9
20260509055108 8 96 4.8 4.8 0.00 0.00 0.00 99 1009.0
20260509054605 8 72 1.6 3.2 0.00 0.00 0.00 99 1008.8
20260509054103 8 68 1.6 4.8 0.00 0.00 0.00 99 1008.8
20260509053601 8 61 1.6 4.8 0.00 0.00 0.00 99 1009.0
20260509053058 8 77 1.6 4.8 0.00 0.00 0.00 99 1009.0
20260509052556 8 63 0.0 3.2 0.00 0.00 0.00 99 1009.2
20260509052053 8 67 0.0 3.2 0.00 0.00 0.00 99 1009.4
20260509051551 8 61 3.2 3.2 0.00 0.00 0.00 99 1009.4
20260509051048 8 46 1.6 3.2 0.00 0.00 0.00 99 1009.3
20260509050544 8 63 1.6 4.8 0.00 0.00 0.00 99 1009.5
20260509050041 8 75 3.2 4.8 0.00 0.00 0.00 99 1009.1
20260509045539 8 36 0.0 3.2 0.00 0.00 0.00 99 1009.3
20260509045035 8 61 1.6 1.6 0.00 0.00 0.00 99 1009.2
20260509044533 8 69 3.2 4.8 0.00 0.00 0.00 99 1009.4
20260509044030 8 71 3.2 3.2 0.00 0.00 0.00 99 1009.5
20260509043526 8 74 3.2 3.2 0.00 0.00 0.00 99 1009.4
20260509043022 8 72 1.6 4.8 0.00 0.00 0.00 99 1009.5
20260509042518 8 84 1.6 3.2 0.00 0.00 0.00 99 1009.6
20260509042009 8 76 3.2 3.2 0.00 0.00 0.00 99 1009.6
20260509041506 8 86 1.6 3.2 0.05 0.00 0.00 99 1009.8
20260509041004 8 80 1.6 3.2 0.00 0.00 0.00 99 1009.8
20260509040502 8 77 1.6 3.2 0.00 0.00 0.00 99 1009.8
20260509035957 8 85 1.6 3.2 0.00 0.15 0.15 99 1009.9
20260509035455 8 81 1.6 3.2 0.00 0.15 0.15 99 1010.2
20260509034951 8 79 1.6 3.2 0.00 0.15 0.15 99 1010.0
20260509034450 8 89 0.0 3.2 0.00 0.15 0.15 99 1010.2
20260509033946 9 100 3.2 4.8 0.00 0.15 0.15 99 1010.3
20260509033443 9 110 0.0 3.2 0.05 0.15 0.15 99 1010.3
20260509032940 9 88 1.6 4.8 0.05 0.15 0.15 99 1010.3
20260509032437 9 92 3.2 3.2 0.00 0.15 0.15 99 1010.4
20260509031935 9 86 3.2 3.2 0.00 0.15 0.15 99 1010.4
20260509031432 9 84 1.6 3.2 0.00 0.15 0.15 99 1010.5
20260509030929 9 87 1.6 3.2 0.05 0.15 0.15 99 1010.4
20260509030427 9 80 3.2 4.8 0.05 0.15 0.15 99 1010.6
20260509025924 9 41 1.6 3.2 0.00 0.15 0.15 98 1010.8
20260509025420 9 53 0.0 3.2 0.05 0.15 0.15 98 1010.8
20260509024915 9 67 3.2 3.2 0.05 0.15 0.15 98 1010.8
20260509024412 9 72 1.6 3.2 0.05 0.13 0.13 98 1011.0
20260509023909 9 76 1.6 1.6 0.13 0.13 0.13 98 1010.7
20260509023406 9 62 1.6 3.2 0.05 0.13 0.13 98 1011.3
20260509022902 9 56 0.0 3.2 0.05 0.10 0.10 98 1011.3